Regional Weather Roundup
Issued by NWS Little Rock, AR

Home | Current Version | Previous Version | Text Only | Print | Product List | Glossary On
Versions: 1 2 3 4 5 6 7 8 9 10 11 12 13 14 15 16 17 18 19 20 21 22 23 24 25 26 27 28 29 30 31 32
000
ASUS44 KLZK 280105
RWRLZK

WEATHER ROUNDUP FOR ARKANSAS
NATIONAL WEATHER SERVICE LITTLE ROCK AR
800 PM CDT MON MAR 27 2017

NOTE: "FAIR" INDICATES FEW OR NO CLOUDS BELOW 12,000 FEET WITH NO
SIGNIFICANT WEATHER AND/OR OBSTRUCTIONS TO VISIBILITY.

ARZ001-003-010-029-280200-
NORTHWEST ARKANSAS

CITY           SKY/WX    TMP DP  RH WIND       PRES   REMARKS
FAYETTEVILLE   CLOUDY    53  50  89 N5        29.93R
FORT SMITH     CLOUDY    58  49  72 NW9       29.91R
HARRISON       CLOUDY    56  52  86 NW8       29.91R
BENTONVILLE    CLOUDY    54  46  76 CALM      29.95R
ROGERS         CLOUDY    53  49  86 W6        29.95R
SILOAM SPGS    CLOUDY    54  46  76 N5        29.93F
HIGHFILL       CLOUDY    53  49  86 N5        29.93R
SPRINGDALE     CLOUDY    54  50  87 NW5       29.95
$$

ARZ004-005-016-280200-
NORTH CENTRAL ARKANSAS

CITY           SKY/WX    TMP DP  RH WIND       PRES   REMARKS
BATESVILLE     CLEAR     66  54  63 CALM      29.86R
FLIPPIN        CLEAR     61  48  63 NW8       29.87R
MTN HOME       CLEAR     60  53  77 N7        29.87R
$$

ARZ040-041-280200-
WEST CENTRAL ARKANSAS

CITY           SKY/WX    TMP DP  RH WIND       PRES   REMARKS
MENA           CLEAR     63  57  82 N6        29.90R
MOUNT IDA      CLEAR     63  54  72 NW6       29.87R
$$

ARZ009-017-025-026-028-280200-
NORTHEAST ARKANSAS

CITY           SKY/WX    TMP DP  RH WIND       PRES   REMARKS
CORNING        FAIR      64  57  77 N3        29.85R
JONESBORO      CLEAR     65  56  72 CALM      29.83R
NEWPORT        CLEAR     63  57  81 N8        29.84R
WALNUT RIDGE   CLEAR     64  54  68 N6        29.84R
BLYTHEVILLE    CLEAR     61  59  93 E6        29.84R
$$

ARZ022-023-033-042-044-280200-
CENTRAL ARKANSAS

CITY           SKY/WX    TMP DP  RH WIND       PRES   REMARKS
LITTLE ROCK    PTCLDY    68  56  65 NW7       29.85R
N LITTLE ROCK    N/A     68  57  67 W5        29.84R
JACKSONVILLE   CLEAR     70  58  64 W7        29.84R
CONWAY           N/A     68  57  68 W9        29.84R
SEARCY         CLEAR     70  55  59 VRB3      29.85R
HOT SPRINGS    CLEAR     67  55  65 NW6       29.87R
RUSSELLVILLE   CLEAR     63  53  70 W9        29.87R
CLINTON        MOCLDY    68  55  64 N6        29.85R
$$

ARZ036-280200-
EAST ARKANSAS

CITY           SKY/WX    TMP DP  RH WIND       PRES   REMARKS
WEST MEMPHIS   PTCLDY    67  63  87 NE12      29.81R
$$

ARZ050-053-066-070-073-280200-
SOUTHWEST ARKANSAS

CITY           SKY/WX    TMP DP  RH WIND       PRES   REMARKS
ARKADELPHIA    FAIR      72  60  66 NW8       29.85R
CAMDEN         PTCLDY    73  61  64 NW3       29.83R
TEXARKANA      CLEAR     68  59  73 NW7       29.86R
EL DORADO      CLEAR     71  64  78 CALM      29.84R
DE QUEEN       CLEAR     66  56  70 CALM      29.86R
$$

ARZ056-057-069-280200-
SOUTHEAST ARKANSAS

CITY           SKY/WX    TMP DP  RH WIND       PRES   REMARKS
PINE BLUFF     CLEAR     75  60  59 W3        29.82R
STUTTGART      CLEAR     72  55  56 NW9       29.83R
MONTICELLO     CLEAR     76  61  59 SW5       29.83R

$$






USA.gov is the U.S. government's official web portal to all federal, state and local government web resources and services.